Flag for Portugal Weather past 2 weeks in Guimarães, Portugal

Now
58 °F

Cool.


Feels Like: 57 °F
Forecast: 52 / 83 °F
Wind: 6 mph from Northwest

Location: Porto / Pedras Rubras

Current Time: Jun 3, 2015 at 12:57:06 AM

Latest Report: Jun 3, 2015 at 12:00 AM


Visibility: N/A

Pressure: 30.14 "Hg

Humidity: 86%

Dew point: 54 °F

Location of GuimarãesLocation

Historic Weather in Guimarães — Graph

°F

Guimarães temperature yesterday

Maximum temperature yesterday: 67 °F (at 3:00 PM)
Minimum temperature yesterday: 51 °F (at 6:00 AM)
Average temperature yesterday: 60 °F

Past Weeks' High & Low Weather Summary

 TemperatureHumidityPressure
High82 °F (May 28, 3:00 PM)94% (Jun 1, 7:00 AM)30.35 "Hg (Jun 1, 7:00 AM)
Low47 °F (May 20, 5:00 AM)25% (May 27, 12:00 PM)29.91 "Hg (May 29, 5:00 AM)
Average65 °F56%30.10 "Hg
* Reported May 18 11:00 PM — Jun 2 11:00 PM, Guimarães, Weather by CustomWeather, © 2015

Note: Actual official high and low records may vary slightly from our data, if they occured in-between our weather recording intervals... More about our weather records

Advertising

Guimarães weather history for previous 24 hours

 ConditionsComfort  
Time TempWeatherWind HumidityBarometerVisibility
11:00 PM
Tue, Jun 2
58 °FCool.6 mph85%30.14 "HgN/A
9:00 PM60 °FCool.6 mph77%30.12 "HgN/A
8:00 PM63 °FMild.7 mph73%30.13 "HgN/A
7:00 PM64 °FMild.8 mph67%30.12 "HgN/A
6:00 PM65 °FMild.10 mph63%30.13 "HgN/A
5:00 PM66 °FMild.10 mph61%30.13 "HgN/A
4:00 PM67 °FMild.10 mph59%30.14 "HgN/A
3:00 PM67 °FMild.10 mph58%30.14 "HgN/A
2:00 PM66 °FMild.9 mph58%30.15 "HgN/A
1:00 PM65 °FMild.8 mph58%30.15 "HgN/A
12:00 PM64 °FMild.6 mph62%30.15 "HgN/A
11:00 AM63 °FMild.6 mph65%30.16 "HgN/A
10:00 AM63 °FMild.3 mph64%30.16 "HgN/A
9:00 AM60 °FCool.7 mph69%30.15 "HgN/A
8:00 AM56 °FCool.5 mph83%30.15 "HgN/A
7:00 AM54 °FCool.3 mph86%30.14 "HgN/A
6:00 AM51 °FCool.1 mph88%30.13 "HgN/A
5:00 AM51 °FCool.No wind88%30.11 "HgN/A
3:00 AM53 °FCool.2 mph84%30.13 "HgN/A
2:00 AM54 °FCool.1 mph84%30.13 "HgN/A
1:00 AM54 °FCool.3 mph81%30.14 "HgN/A
12:00 AM55 °FCool.3 mph83%30.15 "HgN/A
Weather by CustomWeather, © 2015

See weather overviewHow to use our weather pages